Find Kosmos-2292

NORAD ID: 23278 Int'l Des: 1994-061 Owner: PVO Country: RU operational
LEOPOLAR

Live-Position

3D-Globus wird geladen...

Über Kosmos-2292

Beschreibung wird geladen...

Nächste Überflüge

Passes for default location (London). Set your location on the main map for personalized predictions.

Höhenverlauf

Loading altitude history...

Zweizeiliger Elementsatz

1 23278U 94061A 26105.85260494 .00001305 00000-0 10646-3 0 9993
2 23278 82.9712 318.9479 0819685 329.3329 26.2233 13.70572766549462
Epoch: 15. Apr. 2026 • Age: 5 hours

Aktueller Status

Höhe 543.2 km
Geschwindigkeit 7.82 km/s
Subsatellitenpunkt 12.74°N, 89.56°E
Startdatum 27. Sept. 1994
Alter 31.5 years
Typ other

Technische Details

Klassifizierung Payload
Masse 570.00 kg
Trockenmasse 570.00 kg
Gesamtmasse 570.00 kg
Länge 2.00 m
Durchmesser 2.00 m
Spannweite 2.00 m
Form Sphere
Hersteller YUZHUA
Bus-Typ Vektor
Phasenstatus In Orbit
Besitzer/Staat PVO/RU

Most Searched